Tracking 23588 objects as of 6-Aug-2021
HD Live streaming from Space Station
objects crossing your sky now

GRBALPHA

Track GRBALPHA now!
10-day predictions
GRBALPHA is classified as:


NORAD ID: 47941
Int'l Code: 2021-022K
Perigee: 540.8 km
Apogee: 572.0 km
Inclination: 97.6 °
Period: 95.6 minutes
Semi major axis: 6927 km
RCS: Unknown
Launch date: March 22, 2021
Source: (TBD)
Launch site: TYURATAM MISSILE AND SPACE COMPLEX (TTMTR)

Uplink (MHz):
Downlink (MHz): 435.310
Beacon (MHz):
Mode: 9600bps GMSK
Call sign:
Status: Unknown

aabbcc
Your satellite tracking list
Your tracking list is empty




NASA's NSSDC Master Catalog

Two Line Element Set (TLE):
1 47941U 21022K   21217.89758975 -.00000091  00000-0 -20110-5 0  9994
2 47941  97.5538 119.0674 0022559 139.3825 283.1943 15.05732792 20492
Source of the keplerian elements: AFSPC